Meteo Giornale » Osservazioni meteo Italia » Torino-Caselle

ore: 13:50 - Osservazioni Meteo Torino-Caselle
Lat. 45° 13' N Lon. 7° 39' E Alt. 301 metri s.l.m.

sereno Europe/Rome

28 °C

Sereno

Temp. 24 Ore

20 °C

28 °C

Nord

5.5 Km/h

Dew point 16 °C

Umidità 48 %

Visibilità  10 Km

Il sole sorge alle ore 06:36

Il sole tramonta alle ore 20:28

Data e Ora Cielo e Fenomeni T °C DP °C Um. % Pres. hPa Vis. km Vento km/h
Oggi h: 13:50 sereno Sereno 28 16 48 1019 10 N 5.5
Oggi h: 13:20 sereno Sereno 28 16 48 1020 10 N 5.5
Oggi h: 12:50 sereno Sereno 28 17 51 1020 10 SE 7.4
Oggi h: 12:20 sereno Sereno 27 17 54 1020 10 S 7.4
Oggi h: 11:50 sereno Sereno 27 17 54 1020 10 S 7.4
Oggi h: 11:20 sereno Sereno 26 17 57 1020 10 S/SO 9.3
Oggi h: 10:50 sereno Sereno 25 18 65 1020 10 S/SO 7.4
Oggi h: 10:20 sereno Sereno 24 19 73 1020 10 N 5.5
Oggi h: 09:50 sereno Sereno 24 18 69 1020 10 N 3.7
Oggi h: 09:20 poco_nuvoloso Poco Nuvoloso 23 19 78 1020 10 N 1.8
Oggi h: 08:50 poco_nuvoloso Poco Nuvoloso 22 18 78 1020 10 N 3.7
Oggi h: 08:20 molto_nuvoloso Molto Nuvoloso 22 18 78 1020 10 N 1.8
Oggi h: 07:50 molto_nuvoloso Molto Nuvoloso 21 18 82 1020 10 N 3.7
Oggi h: 07:20 molto_nuvoloso Molto Nuvoloso 20 18 88 1019 10 N 1.8
Oggi h: 06:50 molto_nuvoloso Molto Nuvoloso 20 18 88 1019 10 N 1.8
Oggi h: 06:20 nuvoloso Nuvoloso 20 18 88 1019 10 N 1.8
Oggi h: 05:50 nuvoloso Nuvoloso 20 18 88 1019 10 N 5.5
Oggi h: 05:20 nuvoloso Nuvoloso 20 18 88 1018 10 O/NO 7.4
Oggi h: 04:50 molto_nuvoloso Molto Nuvoloso 20 18 88 1018 10 N 5.5
Oggi h: 04:20 molto_nuvoloso Molto Nuvoloso 21 18 82 1018 10 N 5.5
Oggi h: 03:50 sereno Sereno 20 19 93 1018 10 N 3.7
Oggi h: 03:20 sereno Sereno 20 19 93 1018 10 N 1.8
Oggi h: 02:50 sereno Sereno 20 19 93 1018 10 N 1.8
Oggi h: 02:20 sereno Sereno 20 19 93 1018 10 N 3.7
Oggi h: 01:50 sereno Sereno 20 20 100 1018 10 N 1.8
Oggi h: 01:20 molto_nuvoloso Molto Nuvoloso 21 20 94 1018 10 N 5.5
Oggi h: 00:50 molto_nuvoloso Molto Nuvoloso 21 20 94 1018 10 N 5.5
Oggi h: 00:20 molto_nuvoloso Molto Nuvoloso 21 20 94 1018 10 N 3.7
Ieri h: 23:50 molto_nuvoloso Molto Nuvoloso 22 20 88 1018 10 N 3.7
Ieri h: 23:20 molto_nuvoloso Molto Nuvoloso 23 20 83 1018 10 NO 7.4
Ieri h: 22:50 molto_nuvoloso Molto Nuvoloso 22 19 83 1018 10 N/NO 7.4
Ieri h: 22:20 molto_nuvoloso Molto Nuvoloso 22 19 83 1018 10 N 5.5
Ieri h: 21:50 sereno Sereno 22 20 88 1019 10 N 3.7
Ieri h: 21:20 molto_nuvoloso Molto Nuvoloso 22 20 88 1018 10 N 3.7
Ieri h: 20:50 sereno Sereno 22 19 83 1018 10 NE 9.3
Ieri h: 20:20 nuvoloso Nuvoloso 23 20 83 1018 10 NE 7.4
Ieri h: 19:50 molto_nuvoloso Molto Nuvoloso 24 19 73 1017 10 N/NE 7.4
Ieri h: 19:20 molto_nuvoloso Molto Nuvoloso 24 19 73 1017 10 NE 7.4
Ieri h: 18:50 molto_nuvoloso Molto Nuvoloso 24 19 73 1017 10 N 14.8
Ieri h: 18:20 molto_nuvoloso Molto Nuvoloso 24 19 73 1018 10 N 16.7
Ieri h: 17:50 molto_nuvoloso Molto Nuvoloso 26 19 65 1018 10 N 9.3
Ieri h: 16:20 molto_nuvoloso Molto Nuvoloso 26 18 61 1018 10 E 11.1
Ieri h: 15:50 molto_nuvoloso Molto Nuvoloso 26 18 61 1018 10 E 13
Ieri h: 15:20 molto_nuvoloso Molto Nuvoloso 26 19 65 1018 10 E 9.3
Ieri h: 14:50 molto_nuvoloso Molto Nuvoloso 26 19 65 1018 10 NE 7.4